"TOA5","AWS1","CR1000","7964","CR1000.Std.14","CPU:AWS1_114.CR1","64363","TBL110"
"TIMESTAMP","RECORD","Wind_spd_WVc(1)","Wind_spd_WVc(2)","Air_Temp_Avg","Humidity_Avg","SW_upper_Wm2_Avg","Rain_Tot","Press_Avg","Issui_Tot","Depth_cm","SR50A_Raw","Quality","Ground_Temp_Avg(1)","Ground_Temp_Avg(2)","SW_lower_Wm2_Avg","Albedo_Avg","SWC_per(1)","SWC_per(2)","Period(1)","Period(2)"
"TS","RN","","","","","","","","","","","","","","","","","","",""
"","","WVc","WVc","Avg","Avg","Avg","Tot","Avg","Tot","Smp","Smp","Smp","Avg","Avg","Avg","Avg","Smp","Smp","Smp","Smp"
"2017-07-09 00:00:00",295981,0.012,102,17.59,100,0,0,867.3146,0,3.306,3.05,252,21.03,19.61,0.3751571,0,46.82,54.63,32.5,34.42
"2017-07-09 00:10:00",295982,0,0,17.72,100,0,0,867.262,0,3.626,3.046,303,21.03,19.59,0.5759926,0,46.77,54.63,32.48,34.42
"2017-07-09 00:20:00",295983,0.015,141.1,17.9,100,0,0,867.0641,0,2.25,3.06,313,21,19.58,0.7010463,0,46.77,54.69,32.48,34.44
"2017-07-09 00:30:00",295984,0.219,174.3,17.28,100,0,0,867.0262,0,2.559,3.06,464,20.97,19.58,0.003789478,0,46.77,54.69,32.48,34.44
"2017-07-09 00:40:00",295985,0.273,181.9,17.17,100,0,0,867.0587,0,-3.309,3.116,200,21,19.58,0.3145189,0,46.77,54.69,32.48,34.44
"2017-07-09 00:50:00",295986,0.137,189.3,17.33,100,0,0,867.0816,0,-3.797,3.12,190,20.87,19.58,0.4547333,0,46.82,54.63,32.5,34.42
"2017-07-09 01:00:00",295987,0.166,202.5,17.39,100,0,0,867.213,0,-38.42,3.457,272,20.89,19.58,0.4812667,0,46.77,54.63,32.48,34.42
"2017-07-09 01:10:00",295988,0.34,195.1,17.15,100,0,0,867.2684,0,-2.958,3.113,206,20.84,19.58,0.2880043,0,46.77,54.63,32.48,34.42
"2017-07-09 01:20:00",295989,0.092,193.7,17.15,100,0,0,867.2316,0,-3.123,3.116,201,20.78,19.58,0.3183212,0,46.77,54.63,32.48,34.42
"2017-07-09 01:30:00",295990,0.246,198.5,17.05,100,0,0,867.256,0,-2.823,3.111,206,20.83,19.59,0.3145319,0,46.77,54.63,32.48,34.42
"2017-07-09 01:40:00",295991,0.007,198.2,17.29,100,0,0,867.2786,0,-38.11,3.455,311,20.74,19.59,0.5949579,0,46.82,54.63,32.5,34.42
"2017-07-09 01:50:00",295992,0.297,199.7,17.07,100,0,0,867.3123,0,-37.39,3.448,282,20.69,19.59,0.3751645,0,46.77,54.63,32.48,34.42
"2017-07-09 02:00:00",295993,0.055,188,16.98,100,0,0,867.2656,0,-35.99,3.436,366,20.67,19.61,0.2880051,0,46.77,54.63,32.48,34.42
"2017-07-09 02:10:00",295994,0.162,163.2,16.74,100,0,0,867.0739,0,-36.76,3.443,323,20.63,19.61,0.1932617,0,46.77,54.58,32.48,34.41
"2017-07-09 02:20:00",295995,0,0,17.41,99.8,0,0,867.0848,0,-37.61,3.445,363,20.63,19.61,1.087577,0,46.77,54.58,32.48,34.41
"2017-07-09 02:30:00",295996,0.064,325.2,18.01,95.8,0,0,867.0768,0,-38.9,3.457,343,20.65,19.62,1.493061,0,46.77,54.58,32.48,34.41
"2017-07-09 02:40:00",295997,0.102,211.4,17.69,99.2,0,0,867.0746,0,3.098,3.052,454,20.57,19.62,0.7237911,0,46.77,54.58,32.48,34.41
"2017-07-09 02:50:00",295998,0.238,184.6,17.28,100,0,0,867.082,0,-37.57,3.45,352,20.56,19.62,0.2273703,0,46.77,54.58,32.48,34.41
"2017-07-09 03:00:00",295999,0.225,187.3,16.91,100,0,0,867.0743,0,-38.23,3.458,312,20.52,19.59,0.04168485,0,46.72,54.58,32.47,34.41
"2017-07-09 03:10:00",296000,0.25,189.5,16.76,100,0,0,867.0446,0,3.726,3.05,427,20.48,19.57,0.1515816,0,46.77,54.58,32.48,34.41
"2017-07-09 03:20:00",296001,0.202,191.7,16.84,100,0,0,866.9535,0,3.783,3.049,408,20.46,19.55,0.3903227,0,46.77,54.58,32.48,34.41
"2017-07-09 03:30:00",296002,0.116,191.6,16.84,100,0,0,866.8854,0,3.981,3.048,446,20.41,19.54,0.3865317,0,46.77,54.58,32.48,34.41
"2017-07-09 03:40:00",296003,0.366,191.6,16.72,100,0,0,866.8934,0,3.489,3.053,531,20.38,19.56,0.4357919,0,46.77,54.58,32.48,34.41
"2017-07-09 03:50:00",296004,0.144,184.1,16.67,100,0,0,866.886,0,3.503,3.054,522,20.37,19.57,0.3751622,0,46.72,54.58,32.47,34.41
"2017-07-09 04:00:00",296005,0.498,186.8,16.47,100,0,0,866.8575,0,3.914,3.05,492,20.32,19.58,0.2804255,0,46.77,54.52,32.48,34.4
"2017-07-09 04:10:00",296006,0.326,196.5,16.69,100,0,0,866.8294,0,3.005,3.057,526,20.34,19.58,0.4926402,0,46.77,54.52,32.48,34.4
"2017-07-09 04:20:00",296007,0.114,193.6,16.84,100,0,0,866.8317,0,2.299,3.065,470,20.3,19.58,0.5267462,0,46.72,54.52,32.47,34.4
"2017-07-09 04:30:00",296008,0.327,192.1,16.63,100,0.06288454,0,866.8321,0,3.052,3.057,471,20.31,19.58,0.6555906,0.273,46.72,54.52,32.47,34.4
"2017-07-09 04:40:00",296009,0.003,191.6,16.83,100,3.965656,0,866.827,0,0.532,3.081,326,20.27,19.54,2.050142,0.584,46.77,54.52,32.48,34.4
"2017-07-09 04:50:00",296010,0,0,16.82,100,6.135172,0,866.8276,0,-0.07,3.088,273,20.22,19.52,2.122143,0.347,46.77,54.52,32.48,34.4
"2017-07-09 05:00:00",296011,0.205,192,16.62,100,11.43712,0,866.8348,0,0.31,3.085,270,20.21,19.52,2.588257,0.23,46.77,54.52,32.48,34.4
"2017-07-09 05:10:00",296012,0.337,191.9,16.49,100,22.26899,0,866.8356,0,0.16,3.086,261,20.15,19.53,4.251865,0.192,46.72,54.52,32.47,34.4
"2017-07-09 05:20:00",296013,0.214,191.6,16.67,100,33.90656,0,866.8275,0,-0.07,3.088,259,20.13,19.53,5.907895,0.174,46.72,54.52,32.47,34.4
"2017-07-09 05:30:00",296014,0.288,193.3,16.68,100,40.01029,0,866.8267,0,-0.442,3.09,241,20.13,19.53,6.76812,0.169,46.77,54.52,32.48,34.4
"2017-07-09 05:40:00",296015,0.041,224.6,17.18,100,49.60409,0,866.8261,0,-1.657,3.099,210,20.1,19.53,8.56815,0.173,46.77,54.52,32.48,34.4
"2017-07-09 05:50:00",296016,0.001,309.5,17.35,100,62.16847,0,866.8221,0,-2.186,3.106,205,20.05,19.52,10.07627,0.162,46.77,54.52,32.48,34.4
"2017-07-09 06:00:00",296017,0,0,17.31,100,77.82287,0,866.9449,0,-2.332,3.106,197,20,19.5,12.24769,0.157,46.77,54.52,32.48,34.4
"2017-07-09 06:10:00",296018,0,0,17.61,100,91.70081,0,867.0677,0,-2.417,3.105,193,20.01,19.47,14.20311,0.155,46.72,54.52,32.47,34.4
"2017-07-09 06:20:00",296019,0.021,183.2,17.72,100,113.1513,0,866.9267,0,-2.308,3.103,187,19.97,19.45,17.3786,0.154,46.77,54.46,32.48,34.38
"2017-07-09 06:30:00",296020,0.112,166.7,17.83,100,127.6808,0,866.8119,0,-1.893,3.099,196,19.97,19.45,20.32673,0.159,46.72,54.46,32.47,34.38
"2017-07-09 06:40:00",296021,0.024,162.3,18.34,99.8,158.8891,0,866.818,0,-2.059,3.096,190,19.96,19.44,27.38247,0.172,46.77,54.46,32.48,34.38
"2017-07-09 06:50:00",296022,0.181,353.7,18.92,97.2,180.4809,0,867.058,0,-1.479,3.09,201,19.95,19.43,28.16994,0.157,46.72,54.46,32.47,34.38
"2017-07-09 07:00:00",296023,0.625,357.2,18.73,99.8,180.4766,0,867.1044,0,-1.683,3.093,196,19.87,19.42,29.9603,0.166,46.72,54.46,32.47,34.38
"2017-07-09 07:10:00",296024,0.137,358.5,18.91,98.3,198.4122,0,867.2875,0,-2.063,3.094,192,19.84,19.4,31.72033,0.16,46.72,54.46,32.47,34.38
"2017-07-09 07:20:00",296025,0.442,2.626,19.19,93.9,211.4854,0,867.3148,0,-2.253,3.095,195,19.82,19.38,33.39307,0.158,46.72,54.46,32.47,34.38
"2017-07-09 07:30:00",296026,0.265,28.19,19.44,94.5,217.5923,0,867.3295,0,-2.909,3.1,187,19.81,19.35,34.19452,0.157,46.72,54.46,32.47,34.38
"2017-07-09 07:40:00",296027,0.188,15.44,19.59,89.6,206.8336,0,867.317,0,-1.296,3.084,214,19.8,19.32,30.87894,0.149,46.72,54.46,32.47,34.38
"2017-07-09 07:50:00",296028,0.064,113.1,19.78,87.6,251.1191,0,867.3148,0,1.368,3.056,248,19.8,19.28,35.42078,0.141,46.72,54.46,32.47,34.38
"2017-07-09 08:00:00",296029,0.064,85.3,20.19,86,289.7801,0,867.3148,0,2.104,3.048,242,19.8,19.28,40.18641,0.139,46.72,54.46,32.47,34.38
"2017-07-09 08:10:00",296030,0.098,104,20.3,85.4,355.3088,0,867.2727,0,1.884,3.049,240,19.79,19.27,51.17205,0.144,46.77,54.46,32.48,34.38
"2017-07-09 08:20:00",296031,0.175,136.3,20.61,81.7,362.3636,0,867.0896,0,1.882,3.047,250,19.74,19.27,53.90315,0.149,46.72,54.41,32.47,34.37
"2017-07-09 08:30:00",296032,0.038,300.2,21.15,79.67,432.978,0,867.0096,0,1.37,3.049,240,19.75,19.26,66.32475,0.153,46.72,54.46,32.47,34.38
"2017-07-09 08:40:00",296033,0.163,62.47,21.33,76.37,453.2511,0,866.8159,0,0.838,3.053,232,19.79,19.27,69.59398,0.153,46.72,54.41,32.47,34.37
"2017-07-09 08:50:00",296034,0.084,26.56,22.15,73.53,588.5051,0,866.8096,0,1.48,3.043,324,19.79,19.24,92.028,0.156,46.72,54.41,32.47,34.37
"2017-07-09 09:00:00",296035,0.127,164,22.24,71.68,500.9525,0,866.7822,0,0.568,3.052,294,19.81,19.24,75.84081,0.151,46.72,54.41,32.47,34.37
"2017-07-09 09:10:00",296036,0.228,2.016,22.09,72.1,462.1855,0,866.8096,0,-0.597,3.065,245,19.8,19.27,69.21894,0.15,46.72,54.41,32.47,34.37
"2017-07-09 09:20:00",296037,0.131,301.6,21.91,75.28,425.5913,0,866.8074,0,-2.94,3.088,192,19.79,19.27,64.14268,0.151,46.72,54.41,32.47,34.37
"2017-07-09 09:30:00",296038,0.079,128.6,21.83,79.72,343.4489,0,866.8096,0,-3.204,3.091,196,19.79,19.19,49.83067,0.145,46.72,54.41,32.47,34.37
"2017-07-09 09:40:00",296039,0.161,88.8,21.76,81.9,341.2526,0,866.8643,0,-1.368,3.074,261,19.82,19.1,50.65272,0.147,46.72,54.46,32.47,34.38
"2017-07-09 09:50:00",296040,0.158,67.34,21.67,80.4,478.31,0,866.9232,0,-2.269,3.082,236,19.95,19.1,74.92026,0.156,46.72,54.41,32.47,34.37
"2017-07-09 10:00:00",296041,0.354,66.22,22.09,76.8,643.5222,0,867.0285,0,2.198,3.039,402,19.89,19.1,103.2261,0.16,46.72,54.41,32.47,34.37
"2017-07-09 10:10:00",296042,0.664,339.6,21.8,72.7,532.3329,0,866.8937,0,318,0,0,19.88,19.11,83.58399,0.156,46.66,54.41,32.46,34.37
"2017-07-09 10:20:00",296043,0.278,16.77,21.85,71.86,409.9541,0,866.8538,0,-37.86,3.423,240,19.93,19.14,64.68062,0.158,46.66,54.41,32.46,34.37
"2017-07-09 10:30:00",296044,0.215,351.2,22.16,75.25,427.3083,0,866.8453,0,-3.994,3.097,189,20.02,19.14,66.26031,0.155,46.66,54.35,32.46,34.36
"2017-07-09 10:40:00",296045,0.192,209.5,22.15,75.02,482.3175,0,866.9864,0,0.048,3.057,269,19.99,19.15,75.69685,0.157,46.66,54.35,32.46,34.36
"2017-07-09 10:50:00",296046,0.074,281.2,22.06,77.56,288.5654,0,866.9717,0,2.371,3.036,246,20.1,19.14,42.53828,0.15,46.61,54.41,32.44,34.37
"2017-07-09 11:00:00",296047,0.266,294.7,21.71,78.98,294.891,0,866.9506,0,0.168,3.059,225,20.07,19.06,43.45504,0.147,46.61,54.41,32.44,34.37
"2017-07-09 11:10:00",296048,0.09,239.7,21.77,80.9,277.9887,0,866.9338,0,4.716,3.015,469,20.06,19.07,41.65941,0.15,46.61,54.35,32.44,34.36
"2017-07-09 11:20:00",296049,0.221,356,21.65,82.7,292.8362,0,866.8137,0,1.924,3.043,228,20.17,19.04,44.23542,0.151,46.61,54.35,32.44,34.36
"2017-07-09 11:30:00",296050,0.097,227.3,21.86,83,307.6719,0,866.8201,0,2.683,3.033,232,20.15,19.03,46.9175,0.152,46.56,54.35,32.43,34.36
"2017-07-09 11:40:00",296051,0.259,48.44,21.85,80.7,299.15,0,866.7948,0,2.916,3.033,241,20.23,19.02,45.7583,0.153,46.61,54.35,32.44,34.36
"2017-07-09 11:50:00",296052,0.238,182.4,21.69,81.1,275.0812,0,866.5632,0,3.308,3.029,233,20.25,19.02,42.31099,0.153,46.56,54.35,32.43,34.36
"2017-07-09 12:00:00",296053,0.49,7.691,21.5,78.79,292.3843,0,866.5568,0,3.286,3.031,270,20.25,19.01,45.68632,0.156,46.61,54.35,32.44,34.36
"2017-07-09 12:10:00",296054,0.252,319.8,21.49,78.66,345.8534,0,866.5568,0,3.504,3.028,306,20.36,19.01,54.84253,0.159,46.61,54.29,32.44,34.34
"2017-07-09 12:20:00",296055,0.276,30.85,21.84,77.69,436.7221,0,866.4011,0,1.077,3.048,269,20.35,19.01,70.40088,0.161,46.56,54.29,32.43,34.34
"2017-07-09 12:30:00",296056,0.437,38.12,22.14,73.09,495.6091,0,866.3041,0,318,0,0,20.39,19,79.57981,0.16,46.56,54.29,32.43,34.34
"2017-07-09 12:40:00",296057,0.369,12.95,22.55,72.04,639.2907,0,866.3041,0,0.3,3.053,241,20.41,19,104.7111,0.163,46.56,54.29,32.43,34.34
"2017-07-09 12:50:00",296058,0.221,305.7,22.42,72.36,529.7595,0,866.3021,0,-0.959,3.066,264,20.36,19.01,83.86053,0.158,46.51,54.29,32.42,34.34
"2017-07-09 13:00:00",296059,0.158,345.5,22.56,70.95,452.7404,0,866.1463,0,1.526,3.041,328,20.46,19.01,69.21894,0.151,46.51,54.29,32.42,34.34
"2017-07-09 13:10:00",296060,0.132,317.3,22.45,71.95,308.4027,0,866.0516,0,0.407,3.054,233,20.49,18.99,44.08767,0.143,46.51,54.29,32.42,34.34
"2017-07-09 13:20:00",296061,0.178,222.8,22.51,72.6,366.0285,0,866.0494,0,2.751,3.029,259,20.53,18.97,55.26681,0.151,46.51,54.24,32.42,34.33
"2017-07-09 13:30:00",296062,0.304,25.82,22.52,72.25,316.347,0,866.0074,0,1.872,3.039,258,20.59,18.97,47.55014,0.15,46.51,54.24,32.42,34.33
"2017-07-09 13:40:00",296063,0.239,22.34,22.64,72.99,403.2081,0,865.8789,0,0.414,3.051,246,20.57,18.97,63.40776,0.156,46.45,54.24,32.4,34.33
"2017-07-09 13:50:00",296064,0.123,186.4,23.15,71.24,438.6394,0,865.8937,0,0.309,3.05,239,20.67,18.99,68.54842,0.155,46.45,54.24,32.4,34.33
"2017-07-09 14:00:00",296065,0.051,335.3,23.05,69.95,359.8247,0,865.8937,0,2.507,3.03,239,20.67,19.02,53.49012,0.147,46.45,54.24,32.4,34.33
"2017-07-09 14:10:00",296066,0.38,351.2,22.87,70.1,497.7897,0,865.8221,0,-1.218,3.066,250,20.72,19.03,77.76903,0.155,46.45,54.24,32.4,34.33
"2017-07-09 14:20:00",296067,0.232,339.2,23.12,70.3,403.5382,0,865.7989,0,-2.722,3.08,220,20.73,19.07,61.69926,0.152,46.4,54.18,32.39,34.32
"2017-07-09 14:30:00",296068,0.166,328.4,23,71.21,360.7637,0,865.7989,0,-0.871,3.062,259,20.71,19.09,52.91809,0.146,46.4,54.18,32.39,34.32
"2017-07-09 14:40:00",296069,0.116,74.86,23.09,70.51,371.6391,0,865.7989,0,0.841,3.046,229,20.8,19.1,54.20989,0.146,46.4,54.18,32.39,34.32
"2017-07-09 14:50:00",296070,0.157,359,23.17,71.1,344.6904,0,865.7989,0,1.814,3.038,247,20.84,19.12,48.83057,0.141,46.4,54.18,32.39,34.32
"2017-07-09 15:00:00",296071,0.314,24.66,22.59,73.15,325.4307,0,865.7379,0,1.757,3.039,263,20.82,19.12,47.016,0.144,46.4,54.18,32.39,34.32
"2017-07-09 15:10:00",296072,0.125,84,22.96,72.07,422.0356,0,865.6221,0,0.354,3.05,246,20.91,19.11,59.85438,0.143,46.35,54.18,32.38,34.32
"2017-07-09 15:20:00",296073,0.167,137.5,23.08,72.33,334.0076,0,865.5462,0,0.992,3.045,253,20.89,19.1,44.59909,0.134,46.35,54.18,32.38,34.32
"2017-07-09 15:30:00",296074,0.122,2.614,22.66,73.8,247.6887,0,865.5126,0,-35.94,3.402,292,20.95,19.1,33.38965,0.135,46.35,54.12,32.38,34.3
"2017-07-09 15:40:00",296075,0.045,40.46,22.61,73.46,251.3858,0,865.4809,0,3.699,3.021,338,21.03,19.1,35.72322,0.142,46.29,54.12,32.36,34.3
"2017-07-09 15:50:00",296076,0.052,254.4,22.43,75.7,176.4411,0,865.5399,0,3.341,3.026,406,21.01,19.12,22.80528,0.129,46.35,54.12,32.38,34.3
"2017-07-09 16:00:00",296077,0.002,88.7,22.18,77.06,149.9561,0,865.5441,0,3.595,3.024,368,21.02,19.13,19.35039,0.129,46.29,54.12,32.36,34.3
"2017-07-09 16:10:00",296078,0.028,322.7,22.03,77.49,160.6821,0,865.4072,0,1.784,3.043,374,21.07,19.13,21.81654,0.136,46.29,54.12,32.36,34.3
"2017-07-09 16:20:00",296079,0.044,291.7,21.95,77.4,168.6579,0,865.3841,0,3.423,3.027,344,21.14,19.12,23.68036,0.14,46.29,54.12,32.36,34.3
"2017-07-09 16:30:00",296080,0.023,219,21.84,77.52,144.4399,0,865.5062,0,3.654,3.025,294,21.12,19.11,19.64587,0.135,46.29,54.12,32.36,34.3
"2017-07-09 16:40:00",296081,0.054,263.1,21.65,78.99,105.3586,0,865.5167,0,3.955,3.023,336,21.1,19.11,13.78924,0.131,46.29,54.07,32.36,34.29
"2017-07-09 16:50:00",296082,0.063,326.7,21.55,79.47,129.6788,0,865.3104,0,3.413,3.03,317,21.1,19.11,18.29347,0.141,46.24,54.07,32.35,34.29
"2017-07-09 17:00:00",296083,0.14,300.5,21.36,80.7,146.0861,0,865.4578,0,3.078,3.033,288,21.12,19.1,21.24452,0.145,46.29,54.07,32.36,34.29
"2017-07-09 17:10:00",296084,0.13,315.2,21.37,81.6,133.5527,0,865.5462,0,4.301,3.021,418,21.16,19.14,19.10037,0.143,46.24,54.07,32.35,34.29
"2017-07-09 17:20:00",296085,0.022,282.3,21.38,83,131.6433,0,865.5462,0,3.009,3.033,274,21.18,19.24,18.97535,0.144,46.24,54.07,32.35,34.29
"2017-07-09 17:30:00",296086,0.122,335,21.33,84,116.4893,0,865.5462,0,3.148,3.033,285,21.21,19.26,16.40692,0.141,46.24,54.07,32.35,34.29
"2017-07-09 17:40:00",296087,0.146,323.8,21.14,84.1,107.3899,0,865.5462,0,2.723,3.038,270,21.22,19.27,15.27802,0.142,46.24,54.12,32.35,34.3
"2017-07-09 17:50:00",296088,0.067,26.81,21.06,84.7,87.41513,0,865.5462,0,3.402,3.031,386,21.23,19.27,12.4141,0.142,46.24,54.07,32.35,34.29
"2017-07-09 18:00:00",296089,0.017,292.6,20.97,86,64.4707,0,865.5947,0,2.189,3.044,476,21.24,19.27,8.705483,0.134,46.19,54.12,32.34,34.3
"2017-07-09 18:10:00",296090,0.033,282,20.76,88.6,48.24483,0,865.7779,0,1.66,3.05,464,21.24,19.28,6.175017,0.128,46.19,54.07,32.34,34.29
"2017-07-09 18:20:00",296091,0.107,294,20.55,92.8,35.0908,0,865.7989,0,-4.47,3.11,200,21.22,19.28,4.375603,0.125,46.19,54.07,32.34,34.29
"2017-07-09 18:30:00",296092,0.02,294.8,20.48,95,25.77886,0,865.7989,0,-1.829,3.085,300,21.2,19.28,3.326219,0.129,46.19,54.07,32.34,34.29
"2017-07-09 18:40:00",296093,0.011,301.8,20.43,96.8,18.87926,0,865.8558,0,0.844,3.059,458,21.19,19.28,2.261667,0.119,46.19,54.07,32.34,34.29
"2017-07-09 18:50:00",296094,0.046,305.9,20.26,99.4,10.05844,0,866.0326,0,1.272,3.056,349,21.19,19.29,0.8296555,0.078,46.14,54.07,32.32,34.29
"2017-07-09 19:00:00",296095,0.046,291.3,20.05,100,5.213814,0,866.0516,0,1.208,3.058,376,21.17,19.31,0.2727599,0.045,46.19,54.07,32.34,34.29
"2017-07-09 19:10:00",296096,0.009,5.918,19.93,100,1.119774,0,866.0305,0,0.11,3.069,394,21.19,19.34,0.01894159,0.006,46.19,54.07,32.34,34.29
"2017-07-09 19:20:00",296097,0.136,357.9,19.82,100,0,0,866.0621,0,1.418,3.057,257,21.2,19.38,0,0,46.19,54.07,32.34,34.29
"2017-07-09 19:30:00",296098,0,0,19.75,100,0,0,866.2557,0,2.161,3.05,240,21.22,19.38,0,0,46.14,54.07,32.32,34.29
"2017-07-09 19:40:00",296099,0.043,16.64,19.72,100,0,0,866.2894,0,1.978,3.052,237,21.21,19.39,0,0,46.19,54.01,32.34,34.27
"2017-07-09 19:50:00",296100,0,0,19.68,100,0,0,866.3041,0,2.108,3.051,238,21.18,19.43,0,0,46.14,54.07,32.32,34.29
"2017-07-09 20:00:00",296101,0,0,19.63,100,0,0,866.3041,0,1.013,3.062,217,21.13,19.42,0,0,46.14,54.01,32.32,34.27
"2017-07-09 20:10:00",296102,0.022,166.5,19.46,100,0,0,866.3041,0,0.049,3.072,220,21.13,19.41,0,0,46.14,54.01,32.32,34.27
"2017-07-09 20:20:00",296103,0.008,162.4,19.46,100,0,0,866.3041,0,-0.342,3.076,220,21.13,19.39,0.03030947,0,46.14,54.01,32.32,34.27
"2017-07-09 20:30:00",296104,0.027,38.51,19.39,100,0,0,866.3041,0,-0.71,3.08,209,21.15,19.39,0.003788742,0,46.14,54.01,32.32,34.27
"2017-07-09 20:40:00",296105,0,0,19.33,100,0,0,866.3041,0,-1.123,3.084,209,21.15,19.39,0.05683116,0,46.14,54.01,32.32,34.27
"2017-07-09 20:50:00",296106,0.244,93.1,19.18,100,0,0,866.3105,0,-1.347,3.088,212,21.07,19.4,0,0,46.14,54.01,32.32,34.27
"2017-07-09 21:00:00",296107,0.175,82.2,18.96,100,0,0,866.3041,0,-1.769,3.093,213,21.05,19.4,0,0,46.08,54.01,32.31,34.27
"2017-07-09 21:10:00",296108,0.027,80.9,18.79,100,0,0,866.3147,0,-1.771,3.093,230,21.03,19.46,0,0,46.14,54.01,32.32,34.27
"2017-07-09 21:20:00",296109,0,0,18.8,100,0,0,866.3063,0,-2.086,3.096,228,21.02,19.48,0.07956702,0,46.14,54.01,32.32,34.27
"2017-07-09 21:30:00",296110,0,0,18.78,100,0,0,866.3273,0,-1.675,3.092,236,21,19.49,0.3410054,0,46.08,53.95,32.31,34.26
"2017-07-09 21:40:00",296111,0,0,18.95,100,0,0,866.3715,0,-0.942,3.084,304,20.97,19.49,0.6441191,0,46.08,54.01,32.31,34.27
"2017-07-09 21:50:00",296112,0,0,19.05,100,0,0,866.4684,0,-1.669,3.091,238,20.95,19.5,0.6062376,0,46.08,53.95,32.31,34.26
"2017-07-09 22:00:00",296113,0.025,73.89,18.94,100,0,0,866.4305,0,-0.691,3.082,313,20.96,19.51,0.3258563,0,46.08,53.95,32.31,34.26
"2017-07-09 22:10:00",296114,0.097,176.7,18.85,100,0,0,866.4263,0,-0.956,3.085,290,20.95,19.52,0.04925745,0,46.14,53.95,32.32,34.26
"2017-07-09 22:20:00",296115,0.013,38.14,18.76,100,0,0,866.5568,0,-0.803,3.084,314,20.9,19.53,0.07956949,0,46.08,53.95,32.31,34.26
"2017-07-09 22:30:00",296116,0,0,18.79,100,0,0,866.5527,0,-0.492,3.081,324,20.93,19.52,0.05304647,0,46.08,53.95,32.31,34.26
"2017-07-09 22:40:00",296117,0,0,18.74,100,0,0,866.4662,0,-0.8,3.084,257,20.97,19.54,0.06820146,0,46.08,53.95,32.31,34.26
"2017-07-09 22:50:00",296118,0,0,18.67,100,0,0,866.5295,0,-0.34,3.08,251,20.84,19.54,0.03031166,0,46.08,53.95,32.31,34.26
"2017-07-09 23:00:00",296119,0.024,303.3,18.59,100,0,0,866.5358,0,-1.116,3.088,216,20.81,19.55,0,0,46.08,53.95,32.31,34.26
"2017-07-09 23:10:00",296120,0.106,341.4,18.47,100,0,0,866.3105,0,-0.915,3.087,220,20.84,19.54,0,0,46.08,53.95,32.31,34.26
"2017-07-09 23:20:00",296121,0,0,18.29,100,0,0,866.3041,0,-1.137,3.09,236,20.8,19.55,0,0,46.08,53.95,32.31,34.26
"2017-07-09 23:30:00",296122,0.061,156.9,18.09,100,0,0,866.3105,0,0.188,3.079,248,20.77,19.57,0,0,46.08,53.95,32.31,34.26
"2017-07-09 23:40:00",296123,0.188,187,17.68,100,0,0,866.3041,0,1.402,3.069,273,20.73,19.56,0,0,46.08,53.95,32.31,34.26
"2017-07-09 23:50:00",296124,0.085,180.7,17.44,100,0,0,866.3041,0,0.455,3.08,238,20.8,19.58,0,0,46.08,53.95,32.31,34.26
